Home > Weather > Basel > Past weeks

Flag for Switzerland Past Weather in Basel, Basel-Stadt, Switzerland — Yesterday and Last 2 Weeks

Now
63 °F

Overcast.


Feels Like: 63 °F
Forecast: 62 / 73 °F
Wind: 5 mph from West

Location: Bale-Mulhouse

Current Time: Jun 29, 2016 at 2:08:27 AM

Latest Report: Jun 29, 2016 at 1:00 AM


Visibility: 3 mi

Pressure: 30.00 "Hg

Humidity: 87%

Dew Point: 59 °F

Location of BaselLocation

Past Weather in Basel — Graph

°F

Basel Temperature Yesterday

Maximum temperature yesterday: 78 °F (at 4:00 PM)
Minimum temperature yesterday: 58 °F (at 6:00 AM)
Average temperature yesterday: 69 °F

High & Low Weather Summary for the Past Weeks

 TemperatureHumidityPressure
High93 °F (Jun 23, 5:00 PM)100% (Jun 20, 7:00 AM)30.29 "Hg (Jun 20, 7:00 AM)
Low47 °F (Jun 20, 6:00 AM)42% (Jun 23, 4:00 PM)29.60 "Hg (Jun 15, 7:00 PM)
Average65 °F77%30.01 "Hg
* Reported Jun 14 12:00 AM — Jun 29 12:00 AM, Basel, Weather by CustomWeather, © 2016

Note: Actual official high and low records may vary slightly from our data, if they occured in-between our weather recording intervals... More about our weather records

Advertising

Basel Weather History for the Previous 24 Hours

Scroll right to see more
 ConditionsComfort  
Time TempWeatherWind HumidityBarometerVisibility
12:00 AM
Wed, Jun 29
64 °FPassing clouds.5 mph87%30.00 "Hg25 mi
11:00 PM
Tue, Jun 28
65 °FPassing clouds.3 mph81%29.99 "Hg25 mi
10:00 PM68 °FPassing clouds.5 mph72%29.98 "Hg25 mi
9:00 PM72 °FScattered clouds.3 mph63%29.97 "Hg25 mi
8:00 PM74 °FPartly sunny.6 mph56%29.97 "Hg25 mi
7:00 PM78 °FOvercast.9 mph49%29.96 "Hg25 mi
6:00 PM77 °FOvercast.7 mph48%29.97 "Hg25 mi
5:00 PM77 °FPartly sunny.7 mph50%29.98 "Hg25 mi
4:00 PM78 °FPartly sunny.7 mph49%29.99 "Hg25 mi
3:00 PM77 °FPartly sunny.8 mph51%30.01 "Hg25 mi
2:00 PM76 °FPartly sunny.7 mph51%30.03 "Hg25 mi
1:00 PM74 °FOvercast.3 mph54%30.05 "Hg25 mi
12:00 PM74 °FOvercast.7 mph53%30.07 "Hg25 mi
11:00 AM71 °FPartly sunny.2 mph62%30.08 "Hg25 mi
10:00 AM70 °FPartly sunny.2 mph62%30.10 "Hg25 mi
9:00 AM67 °FPartly sunny.2 mph67%30.11 "Hg25 mi
8:00 AM64 °FScattered clouds.5 mph73%30.12 "Hg25 mi
7:00 AM60 °FPartly sunny.5 mph83%30.13 "Hg25 mi
6:00 AM58 °FOvercast.3 mph88%30.13 "Hg25 mi
5:00 AM60 °FOvercast.2 mph84%30.13 "Hg28 mi
3:00 AM62 °FOvercast.2 mph79%30.14 "Hg34 mi
2:00 AM63 °FOvercast.5 mph78%30.14 "Hg34 mi
Weather by CustomWeather, © 2016

See weather overviewHow to use our weather pages